This is the latest recevied weather packets stored in our database for station/object W7TTE. If no packets are shown the sender has not sent any weather packets the latest 10 day(s).
| Time | Temp. | Humidity | Pressure | Rain* | Wind** | Luminosity | Snow |
|---|---|---|---|---|---|---|---|
| 1777555938 | 14.44° C | 30% | 1012.3 hPa | 0 mm | - | 29 W/m² | - |
| 1777555331 | 14.44° C | 29% | 1012.2 hPa | 0 mm | - | 25 W/m² | - |
| 1777554724 | 13.89° C | 28% | 1012.3 hPa | 0 mm | - | 20 W/m² | - |
| 1777554422 | 13.89° C | 29% | 1012.3 hPa | 0 mm | - | 17 W/m² | - |
| 1777551997 | 15° C | 32% | 1012.3 hPa | 0 mm | - | 0 W/m² | - |
| 1777551392 | 15° C | 37% | 1012.2 hPa | 0 mm | - | 0 W/m² | - |
| 1777550482 | 15° C | 39% | 1012.1 hPa | 0 mm | - | 0 W/m² | - |
| 1777550178 | 15° C | 38% | 1012.2 hPa | 0 mm | - | 0 W/m² | - |
| 1777548660 | 15.56° C | 34% | 1012.1 hPa | 0 mm | - | 0 W/m² | - |
| 1777548357 | 15.56° C | 34% | 1012.2 hPa | 0 mm | - | 0 W/m² | - |
| 1777548055 | 16.11° C | 34% | 1012.1 hPa | 0 mm | - | 0 W/m² | - |
| 1777547750 | 16.67° C | 34% | 1012.2 hPa | 0 mm | - | 0 W/m² | - |
| 1777547446 | 16.67° C | 31% | 1012.2 hPa | 0 mm | - | 0 W/m² | - |
| 1777546538 | 17.78° C | 35% | 1012.1 hPa | 0 mm | - | 0 W/m² | - |
| 1777545628 | 18.33° C | 31% | 1012.2 hPa | 0 mm | - | 0 W/m² | - |
| 1777545325 | 18.33° C | 28% | 1012.4 hPa | 0 mm | - | 0 W/m² | - |
| 1777545023 | 18.33° C | 28% | 1012.3 hPa | 0 mm | - | 0 W/m² | - |
| 1777544719 | 18.33° C | 27% | 1012.4 hPa | 0 mm | - | 0 W/m² | - |
| 1777544414 | 18.89° C | 27% | 1012.2 hPa | 0 mm | - | 0 W/m² | - |
| 1777544111 | 18.89° C | 27% | 1012.2 hPa | 0 mm | - | 0 W/m² | - |
| 1777543809 | 19.44° C | 26% | 1012.6 hPa | 0 mm | - | 0 W/m² | - |
| 1777543504 | 20° C | 25% | 1012.5 hPa | 0 mm | - | 0 W/m² | - |
| 1777543201 | 19.44° C | 25% | 1012.4 hPa | 0 mm | - | 0 W/m² | - |
| 1777542289 | 20° C | 23% | 1012.5 hPa | 0 mm | - | 0 W/m² | - |
| 1777541987 | 20° C | 23% | 1012.5 hPa | 0 mm | - | 0 W/m² | - |
* Rain latest hour (hover to see other rain measurements)
** Current wind speed in m/s (hover to see current wind gust speed)